Year,Month,Day,Hour,Minute,Value (Times are PST for windspeed in km/hr)
2005,11,04,00,00,8.40
2005,11,04,00,01,14.30
2005,11,04,00,02,9.70
2005,11,04,00,03,12.40
2005,11,04,00,04,10.80
2005,11,04,00,05,16.40
2005,11,04,00,06,13.70
2005,11,04,00,07,10.20
2005,11,04,00,08,8.40
2005,11,04,00,09,11.90
2005,11,04,00,10,9.20
2005,11,04,00,11,9.70
2005,11,04,00,12,11.80
2005,11,04,00,13,12.30
2005,11,04,00,14,13.00
2005,11,04,00,15,10.50
2005,11,04,00,16,10.20
2005,11,04,00,17,13.60
2005,11,04,00,18,11.80
2005,11,04,00,19,13.40
2005,11,04,00,20,12.90
2005,11,04,00,21,13.90
2005,11,04,00,22,14.80
2005,11,04,00,23,14.10
2005,11,04,00,24,7.90
2005,11,04,00,25,11.60
2005,11,04,00,26,18.70
2005,11,04,00,27,14.50
2005,11,04,00,28,13.50
2005,11,04,00,29,16.20
2005,11,04,00,30,14.30
2005,11,04,00,31,14.60
2005,11,04,00,32,10.10
2005,11,04,00,33,13.10
2005,11,04,00,34,9.10
2005,11,04,00,35,11.90
2005,11,04,00,36,11.20
2005,11,04,00,37,6.70
2005,11,04,00,38,7.20
2005,11,04,00,39,12.40
2005,11,04,00,40,13.60
2005,11,04,00,41,13.30
2005,11,04,00,42,12.70
2005,11,04,00,43,16.60
2005,11,04,00,44,9.80
2005,11,04,00,45,10.30
2005,11,04,00,46,12.20
2005,11,04,00,47,10.10
2005,11,04,00,48,9.50
2005,11,04,00,49,11.80
2005,11,04,00,50,12.40
2005,11,04,00,51,12.70
2005,11,04,00,52,15.30
2005,11,04,00,53,11.70
2005,11,04,00,54,4.80
2005,11,04,00,55,11.30
2005,11,04,00,56,11.10
2005,11,04,00,57,14.50
2005,11,04,00,58,12.70
2005,11,04,00,59,12.20
2005,11,04,01,00,13.20
2005,11,04,01,01,14.20
2005,11,04,01,02,14.30
2005,11,04,01,03,15.20
2005,11,04,01,04,14.80
2005,11,04,01,05,16.40
2005,11,04,01,06,13.00
2005,11,04,01,07,12.60
2005,11,04,01,08,10.80
2005,11,04,01,09,9.60
2005,11,04,01,10,7.70
2005,11,04,01,11,7.60
2005,11,04,01,12,5.30
2005,11,04,01,13,10.40
2005,11,04,01,14,10.90
2005,11,04,01,15,12.90
2005,11,04,01,16,12.80
2005,11,04,01,17,13.00
2005,11,04,01,18,10.70
2005,11,04,01,19,11.60
2005,11,04,01,20,12.30
2005,11,04,01,21,13.70
2005,11,04,01,22,11.70
2005,11,04,01,23,10.70
2005,11,04,01,24,9.00
2005,11,04,01,25,10.90
2005,11,04,01,26,5.80
2005,11,04,01,27,5.00
2005,11,04,01,28,14.40
2005,11,04,01,29,12.00
2005,11,04,01,30,9.90
2005,11,04,01,31,8.60
2005,11,04,01,32,10.10
2005,11,04,01,33,8.90
2005,11,04,01,34,12.10
2005,11,04,01,35,9.10
2005,11,04,01,36,4.80
2005,11,04,01,37,8.30
2005,11,04,01,38,5.10
2005,11,04,01,39,7.60
2005,11,04,01,40,8.60
2005,11,04,01,41,5.70
2005,11,04,01,42,7.10
2005,11,04,01,43,7.10
2005,11,04,01,44,9.10
2005,11,04,01,45,9.00
2005,11,04,01,46,7.10
2005,11,04,01,47,12.90
2005,11,04,01,48,10.80
2005,11,04,01,49,10.70
2005,11,04,01,50,10.70
2005,11,04,01,51,11.20
2005,11,04,01,52,9.20
2005,11,04,01,53,15.40
2005,11,04,01,54,14.30
2005,11,04,01,55,17.10
2005,11,04,01,56,17.30
2005,11,04,01,57,10.20
2005,11,04,01,58,12.90
2005,11,04,01,59,17.50
2005,11,04,02,00,12.90
2005,11,04,02,01,19.80
2005,11,04,02,02,7.50
2005,11,04,02,03,14.90
2005,11,04,02,04,10.70
2005,11,04,02,05,8.90
2005,11,04,02,06,16.80
2005,11,04,02,07,16.00
2005,11,04,02,08,5.90
2005,11,04,02,09,17.70
2005,11,04,02,10,12.70
2005,11,04,02,11,14.70
2005,11,04,02,12,8.00
2005,11,04,02,13,13.10
2005,11,04,02,14,10.60
2005,11,04,02,15,15.70
2005,11,04,02,16,14.00
2005,11,04,02,17,7.00
2005,11,04,02,18,12.10
2005,11,04,02,19,17.80
2005,11,04,02,20,11.70
2005,11,04,02,21,9.40
2005,11,04,02,22,5.00
2005,11,04,02,23,5.70
2005,11,04,02,24,7.50
2005,11,04,02,25,6.30
2005,11,04,02,26,7.30
2005,11,04,02,27,6.80
2005,11,04,02,28,10.20
2005,11,04,02,29,9.50
2005,11,04,02,30,9.40
2005,11,04,02,31,7.50
2005,11,04,02,32,9.40
2005,11,04,02,33,12.50
2005,11,04,02,34,9.80
2005,11,04,02,35,12.10
2005,11,04,02,36,18.60
2005,11,04,02,37,11.80
2005,11,04,02,38,15.60
2005,11,04,02,39,9.40
2005,11,04,02,40,15.40
2005,11,04,02,41,15.10
2005,11,04,02,42,18.20
2005,11,04,02,43,13.00
2005,11,04,02,44,10.40
2005,11,04,02,45,9.50
2005,11,04,02,46,5.90
2005,11,04,02,47,6.40
2005,11,04,02,48,7.40
2005,11,04,02,49,8.60
2005,11,04,02,50,9.40
2005,11,04,02,51,9.70
2005,11,04,02,52,11.00
2005,11,04,02,53,12.40
2005,11,04,02,54,7.50
2005,11,04,02,55,11.10
2005,11,04,02,56,9.20
2005,11,04,02,57,10.70
2005,11,04,02,58,9.10
2005,11,04,02,59,5.90
2005,11,04,03,00,7.90
2005,11,04,03,01,8.40
2005,11,04,03,02,8.90
2005,11,04,03,03,9.00
2005,11,04,03,04,6.50
2005,11,04,03,05,7.10
2005,11,04,03,06,9.70
2005,11,04,03,07,6.20
2005,11,04,03,08,6.60
2005,11,04,03,09,4.60
2005,11,04,03,10,3.10
2005,11,04,03,11,1.90
2005,11,04,03,12,6.10
2005,11,04,03,13,3.10
2005,11,04,03,14,6.50
2005,11,04,03,15,6.30
2005,11,04,03,16,7.20
2005,11,04,03,17,6.50
2005,11,04,03,18,4.70
2005,11,04,03,19,5.80
2005,11,04,03,20,3.10
2005,11,04,03,21,6.40
2005,11,04,03,22,1.70
2005,11,04,03,23,2.80
2005,11,04,03,24,0.30
2005,11,04,03,25,1.60
2005,11,04,03,26,2.70
2005,11,04,03,27,1.10
2005,11,04,03,28,2.70
2005,11,04,03,29,1.70
2005,11,04,03,30,4.80
2005,11,04,03,31,5.40
2005,11,04,03,32,5.80
2005,11,04,03,33,3.80
2005,11,04,03,34,2.90
2005,11,04,03,35,1.80
2005,11,04,03,36,6.70
2005,11,04,03,37,4.50
2005,11,04,03,38,4.80
2005,11,04,03,39,5.10
2005,11,04,03,40,6.20
2005,11,04,03,41,0.50
2005,11,04,03,42,3.10
2005,11,04,03,43,1.50
2005,11,04,03,44,0.40
2005,11,04,03,45,2.50
2005,11,04,03,46,3.00
2005,11,04,03,47,1.70
2005,11,04,03,48,2.70
2005,11,04,03,49,1.90
2005,11,04,03,50,4.20
2005,11,04,03,51,1.00
2005,11,04,03,52,0.70
2005,11,04,03,53,0.00
2005,11,04,03,54,2.70
2005,11,04,03,55,6.40
2005,11,04,03,56,4.40
2005,11,04,03,57,1.50
2005,11,04,03,58,5.90
2005,11,04,03,59,3.40
2005,11,04,04,00,2.00
2005,11,04,04,01,3.50
2005,11,04,04,02,6.50
2005,11,04,04,03,7.20
2005,11,04,04,04,5.00
2005,11,04,04,05,9.90
2005,11,04,04,06,8.40
2005,11,04,04,07,9.20
2005,11,04,04,08,6.90
2005,11,04,04,09,5.70
2005,11,04,04,10,5.00
2005,11,04,04,11,7.80
2005,11,04,04,12,7.40
2005,11,04,04,13,12.00
2005,11,04,04,14,9.70
2005,11,04,04,15,10.20
2005,11,04,04,16,9.00
2005,11,04,04,17,5.90
2005,11,04,04,18,3.80
2005,11,04,04,19,7.10
2005,11,04,04,20,5.80
2005,11,04,04,21,7.40
2005,11,04,04,22,7.60
2005,11,04,04,23,4.80
2005,11,04,04,24,7.50
2005,11,04,04,25,6.50
2005,11,04,04,26,3.60
2005,11,04,04,27,2.70
2005,11,04,04,28,3.20
2005,11,04,04,29,8.00
2005,11,04,04,30,7.70
2005,11,04,04,31,6.70
2005,11,04,04,32,2.60
2005,11,04,04,33,4.40
2005,11,04,04,34,2.40
2005,11,04,04,35,2.70
2005,11,04,04,36,4.10
2005,11,04,04,37,2.80
2005,11,04,04,38,3.60
2005,11,04,04,39,7.80
2005,11,04,04,40,11.80
2005,11,04,04,41,8.60
2005,11,04,04,42,6.20
2005,11,04,04,43,7.40
2005,11,04,04,44,4.20
2005,11,04,04,45,2.50
2005,11,04,04,46,7.00
2005,11,04,04,47,5.40
2005,11,04,04,48,3.70
2005,11,04,04,49,3.70
2005,11,04,04,50,4.40
2005,11,04,04,51,8.70
2005,11,04,04,52,7.40
2005,11,04,04,53,6.90
2005,11,04,04,54,4.00
2005,11,04,04,55,7.60
2005,11,04,04,56,6.40
2005,11,04,04,57,5.80
2005,11,04,04,58,3.40
2005,11,04,04,59,4.30
2005,11,04,05,00,3.60
2005,11,04,05,01,2.70
2005,11,04,05,02,3.30
2005,11,04,05,03,4.20
2005,11,04,05,04,5.70
2005,11,04,05,05,3.40
2005,11,04,05,06,2.00
2005,11,04,05,07,1.70
2005,11,04,05,08,0.00
2005,11,04,05,09,0.00
2005,11,04,05,10,0.90
2005,11,04,05,11,3.80
2005,11,04,05,12,5.20
2005,11,04,05,13,6.40
2005,11,04,05,14,4.90
2005,11,04,05,15,2.60
2005,11,04,05,16,2.80
2005,11,04,05,17,2.00
2005,11,04,05,18,0.50
2005,11,04,05,19,0.00
2005,11,04,05,20,1.00
2005,11,04,05,21,2.50
2005,11,04,05,22,3.70
2005,11,04,05,23,3.90
2005,11,04,05,24,3.70
2005,11,04,05,25,3.50
2005,11,04,05,26,3.40
2005,11,04,05,27,3.90
2005,11,04,05,28,2.80
2005,11,04,05,29,3.50
2005,11,04,05,30,1.90
2005,11,04,05,31,1.70
2005,11,04,05,32,4.70
2005,11,04,05,33,1.40
2005,11,04,05,34,0.70
2005,11,04,05,35,0.00
2005,11,04,05,36,0.10
2005,11,04,05,37,0.10
2005,11,04,05,38,2.50
2005,11,04,05,39,5.70
2005,11,04,05,40,5.20
2005,11,04,05,41,10.70
2005,11,04,05,42,9.50
2005,11,04,05,43,9.30
2005,11,04,05,44,8.90
2005,11,04,05,45,6.80
2005,11,04,05,46,4.80
2005,11,04,05,47,5.70
2005,11,04,05,48,8.50
2005,11,04,05,49,9.50
2005,11,04,05,50,6.50
2005,11,04,05,51,5.80
2005,11,04,05,52,6.60
2005,11,04,05,53,5.60
2005,11,04,05,54,5.00
2005,11,04,05,55,6.80
2005,11,04,05,56,5.00
2005,11,04,05,57,5.90
2005,11,04,05,58,4.30
2005,11,04,05,59,7.50
2005,11,04,06,00,8.20
2005,11,04,06,01,5.70
2005,11,04,06,02,6.30
2005,11,04,06,03,8.60
2005,11,04,06,04,7.80
2005,11,04,06,05,7.10
2005,11,04,06,06,5.30
2005,11,04,06,07,5.80
2005,11,04,06,08,6.70
2005,11,04,06,09,5.40
2005,11,04,06,10,3.80
2005,11,04,06,11,5.80
2005,11,04,06,12,7.90
2005,11,04,06,13,7.60
2005,11,04,06,14,13.00
2005,11,04,06,15,9.80
2005,11,04,06,16,12.20
2005,11,04,06,17,11.00
2005,11,04,06,18,13.70
2005,11,04,06,19,8.50
2005,11,04,06,20,7.00
2005,11,04,06,21,8.70
2005,11,04,06,22,10.20
2005,11,04,06,23,12.10
2005,11,04,06,24,9.20
2005,11,04,06,25,10.10
2005,11,04,06,26,9.00
2005,11,04,06,27,11.20
2005,11,04,06,28,9.70
2005,11,04,06,29,14.80
2005,11,04,06,30,12.90
2005,11,04,06,31,6.80
2005,11,04,06,32,3.60
2005,11,04,06,33,6.40
2005,11,04,06,34,5.00
2005,11,04,06,35,6.80
2005,11,04,06,36,7.60
2005,11,04,06,37,7.10
2005,11,04,06,38,10.40
2005,11,04,06,39,11.30
2005,11,04,06,40,10.90
2005,11,04,06,41,6.70
2005,11,04,06,42,13.40
2005,11,04,06,43,11.50
2005,11,04,06,44,6.90
2005,11,04,06,45,9.40
2005,11,04,06,46,8.90
2005,11,04,06,47,14.60
2005,11,04,06,48,11.80
2005,11,04,06,49,8.30
2005,11,04,06,50,14.50
2005,11,04,06,51,15.50
2005,11,04,06,52,8.90
2005,11,04,06,53,7.10
2005,11,04,06,54,13.70
2005,11,04,06,55,15.90
2005,11,04,06,56,17.40
2005,11,04,06,57,17.10
2005,11,04,06,58,9.00
2005,11,04,06,59,12.20
2005,11,04,07,00,13.70
2005,11,04,07,01,12.90
2005,11,04,07,02,13.70
2005,11,04,07,03,8.90
2005,11,04,07,04,7.90
2005,11,04,07,05,7.90
2005,11,04,07,06,8.60
2005,11,04,07,07,11.00
2005,11,04,07,08,6.70
2005,11,04,07,09,8.40
2005,11,04,07,10,12.30
2005,11,04,07,11,12.90
2005,11,04,07,12,10.90
2005,11,04,07,13,11.10
2005,11,04,07,14,10.60
2005,11,04,07,15,8.90
2005,11,04,07,16,9.10
2005,11,04,07,17,12.10
2005,11,04,07,18,11.20
2005,11,04,07,19,6.90
2005,11,04,07,20,6.60
2005,11,04,07,21,7.80
2005,11,04,07,22,5.00
2005,11,04,07,23,2.40
2005,11,04,07,24,6.00
2005,11,04,07,25,1.40
2005,11,04,07,26,5.40
2005,11,04,07,27,4.00
2005,11,04,07,28,1.40
2005,11,04,07,29,0.10
2005,11,04,07,30,1.00
2005,11,04,07,31,4.60
2005,11,04,07,32,3.80
2005,11,04,07,33,4.70
2005,11,04,07,34,4.00
2005,11,04,07,35,10.00
2005,11,04,07,36,9.30
2005,11,04,07,37,8.60
2005,11,04,07,38,9.40
2005,11,04,07,39,7.40
2005,11,04,07,40,6.20
2005,11,04,07,41,6.60
2005,11,04,07,42,10.30
2005,11,04,07,43,9.30
2005,11,04,07,44,11.30
2005,11,04,07,45,11.40
2005,11,04,07,46,9.00
2005,11,04,07,47,8.00
2005,11,04,07,48,6.20
2005,11,04,07,49,6.70
2005,11,04,07,50,7.50
2005,11,04,07,51,9.10
2005,11,04,07,52,8.40
2005,11,04,07,53,12.70
2005,11,04,07,54,18.80
2005,11,04,07,55,13.90
2005,11,04,07,56,13.60
2005,11,04,07,57,9.70
2005,11,04,07,58,9.70
2005,11,04,07,59,13.40
2005,11,04,08,00,9.40
2005,11,04,08,01,10.10
2005,11,04,08,02,9.80
2005,11,04,08,03,11.90
2005,11,04,08,04,14.00
2005,11,04,08,05,11.00
2005,11,04,08,06,10.90
2005,11,04,08,07,13.60
2005,11,04,08,08,12.30
2005,11,04,08,09,9.10
2005,11,04,08,10,9.60
2005,11,04,08,11,10.30
2005,11,04,08,12,9.80
2005,11,04,08,13,6.40
2005,11,04,08,14,6.40
2005,11,04,08,15,7.60
2005,11,04,08,16,8.00
2005,11,04,08,17,11.10
2005,11,04,08,18,10.00
2005,11,04,08,19,8.80
2005,11,04,08,20,5.90
2005,11,04,08,21,10.40
2005,11,04,08,22,9.90
2005,11,04,08,23,9.70
2005,11,04,08,24,9.80
2005,11,04,08,25,9.20
2005,11,04,08,26,9.30
2005,11,04,08,27,11.80
2005,11,04,08,28,10.70
2005,11,04,08,29,8.20
2005,11,04,08,30,6.10
2005,11,04,08,31,8.90
2005,11,04,08,32,9.20
2005,11,04,08,33,5.80
2005,11,04,08,34,6.70
2005,11,04,08,35,6.90
2005,11,04,08,36,6.70
2005,11,04,08,37,6.60
2005,11,04,08,38,7.10
2005,11,04,08,39,8.10
2005,11,04,08,40,5.30
2005,11,04,08,41,6.60
2005,11,04,08,42,3.10
2005,11,04,08,43,4.80
2005,11,04,08,44,1.10
2005,11,04,08,45,1.10
2005,11,04,08,46,3.20
2005,11,04,08,47,0.40
2005,11,04,08,48,1.50
2005,11,04,08,49,4.40
2005,11,04,08,50,6.40
2005,11,04,08,51,3.60
2005,11,04,08,52,1.10
2005,11,04,08,53,3.80
2005,11,04,08,54,1.10
2005,11,04,08,55,0.40
2005,11,04,08,56,0.10
2005,11,04,08,57,0.20
2005,11,04,08,58,1.90
2005,11,04,08,59,3.00
2005,11,04,09,00,3.80
2005,11,04,09,01,4.10
2005,11,04,09,02,4.40
2005,11,04,09,03,3.40
2005,11,04,09,04,4.20
2005,11,04,09,05,0.20
2005,11,04,09,06,0.10
2005,11,04,09,07,0.00
2005,11,04,09,08,0.00
2005,11,04,09,09,0.00
2005,11,04,09,10,0.10
2005,11,04,09,11,0.00
2005,11,04,09,12,0.10
2005,11,04,09,13,1.70
2005,11,04,09,14,2.00
2005,11,04,09,15,2.40
2005,11,04,09,16,0.20
2005,11,04,09,17,0.00
2005,11,04,09,18,0.00
2005,11,04,09,19,0.00
2005,11,04,09,20,0.00
2005,11,04,09,21,0.90
2005,11,04,09,22,0.60
2005,11,04,09,23,2.00
2005,11,04,09,24,3.30
2005,11,04,09,25,2.60
2005,11,04,09,26,2.80
2005,11,04,09,27,0.90
2005,11,04,09,28,1.60
2005,11,04,09,29,2.50
2005,11,04,09,30,0.60
2005,11,04,09,31,1.50
2005,11,04,09,32,1.60
2005,11,04,09,33,1.00
2005,11,04,09,34,1.20
2005,11,04,09,35,1.60
2005,11,04,09,36,1.50
2005,11,04,09,37,0.70
2005,11,04,09,38,0.20
2005,11,04,09,39,3.60
2005,11,04,09,40,4.60
2005,11,04,09,41,4.60
2005,11,04,09,42,5.60
2005,11,04,09,43,5.10
2005,11,04,09,44,3.40
2005,11,04,09,45,0.40
2005,11,04,09,46,0.10
2005,11,04,09,47,0.60
2005,11,04,09,48,0.00
2005,11,04,09,49,0.00
2005,11,04,09,50,0.00
2005,11,04,09,51,0.00
2005,11,04,09,52,0.00
2005,11,04,09,53,0.90
2005,11,04,09,54,1.90
2005,11,04,09,55,5.10
2005,11,04,09,56,4.60
2005,11,04,09,57,4.10
2005,11,04,09,58,1.30
2005,11,04,09,59,1.20
2005,11,04,10,00,0.10
2005,11,04,10,01,0.80
2005,11,04,10,02,5.20
2005,11,04,10,03,5.60
2005,11,04,10,04,5.00
2005,11,04,10,05,6.10
2005,11,04,10,06,5.00
2005,11,04,10,07,4.50
2005,11,04,10,08,3.80
2005,11,04,10,09,4.00
2005,11,04,10,10,2.40
2005,11,04,10,11,3.10
2005,11,04,10,12,2.50
2005,11,04,10,13,2.00
2005,11,04,10,14,3.10
2005,11,04,10,15,4.80
2005,11,04,10,16,3.60
2005,11,04,10,17,0.90
2005,11,04,10,18,1.20
2005,11,04,10,19,0.60
2005,11,04,10,20,0.30
2005,11,04,10,21,1.30
2005,11,04,10,22,3.90
2005,11,04,10,23,1.30
2005,11,04,10,24,0.00
2005,11,04,10,25,2.40
2005,11,04,10,26,3.20
2005,11,04,10,27,0.90
2005,11,04,10,28,0.30
2005,11,04,10,29,3.00
2005,11,04,10,30,2.70
2005,11,04,10,31,0.00
2005,11,04,10,32,0.00
2005,11,04,10,33,2.80
2005,11,04,10,34,10.90
2005,11,04,10,35,7.20
2005,11,04,10,36,7.80
2005,11,04,10,37,8.10
2005,11,04,10,38,5.90
2005,11,04,10,39,4.60
2005,11,04,10,40,1.20
2005,11,04,10,41,2.40
2005,11,04,10,42,6.30
2005,11,04,10,43,6.80
2005,11,04,10,44,10.00
2005,11,04,10,45,10.00
2005,11,04,10,46,8.10
2005,11,04,10,47,6.10
2005,11,04,10,48,6.40
2005,11,04,10,49,4.90
2005,11,04,10,50,4.90
2005,11,04,10,51,7.10
2005,11,04,10,52,7.70
2005,11,04,10,53,7.50
2005,11,04,10,54,8.30
2005,11,04,10,55,9.40
2005,11,04,10,56,8.30
2005,11,04,10,57,11.70
2005,11,04,10,58,12.90
2005,11,04,10,59,12.00
2005,11,04,11,00,8.00
2005,11,04,11,01,11.80
2005,11,04,11,02,9.10
2005,11,04,11,03,5.90
2005,11,04,11,04,6.40
2005,11,04,11,05,6.70
2005,11,04,11,06,5.90
2005,11,04,11,07,6.40
2005,11,04,11,08,8.10
2005,11,04,11,09,7.10
2005,11,04,11,10,5.40
2005,11,04,11,11,3.70
2005,11,04,11,12,5.30
2005,11,04,11,13,6.10
2005,11,04,11,14,5.70
2005,11,04,11,15,4.70
2005,11,04,11,16,4.80
2005,11,04,11,17,7.50
2005,11,04,11,18,7.40
2005,11,04,11,19,8.90
2005,11,04,11,20,5.40
2005,11,04,11,21,8.60
2005,11,04,11,22,6.10
2005,11,04,11,23,7.90
2005,11,04,11,24,6.60
2005,11,04,11,25,7.00
2005,11,04,11,26,5.80
2005,11,04,11,27,7.40
2005,11,04,11,28,8.40
2005,11,04,11,29,9.30
2005,11,04,11,30,11.80
2005,11,04,11,31,7.00
2005,11,04,11,32,8.80
2005,11,04,11,33,9.70
2005,11,04,11,34,13.40
2005,11,04,11,35,11.70
2005,11,04,11,36,7.70
2005,11,04,11,37,5.30
2005,11,04,11,38,6.40
2005,11,04,11,39,6.60
2005,11,04,11,40,6.50
2005,11,04,11,41,7.60
2005,11,04,11,42,6.60
2005,11,04,11,43,9.10
2005,11,04,11,44,6.50
2005,11,04,11,45,4.20
2005,11,04,11,46,5.70
2005,11,04,11,47,6.00
2005,11,04,11,48,11.60
2005,11,04,11,49,12.00
2005,11,04,11,50,9.20
2005,11,04,11,51,10.70
2005,11,04,11,52,7.20
2005,11,04,11,53,8.10
2005,11,04,11,54,5.30
2005,11,04,11,55,5.30
2005,11,04,11,56,7.70
2005,11,04,11,57,5.70
2005,11,04,11,58,3.80
2005,11,04,11,59,4.90
2005,11,04,12,00,5.60
2005,11,04,12,01,9.00
2005,11,04,12,02,8.50
2005,11,04,12,03,9.30
2005,11,04,12,04,8.70
2005,11,04,12,05,11.90
2005,11,04,12,06,9.40
2005,11,04,12,07,7.80
2005,11,04,12,08,7.80
2005,11,04,12,09,10.00
2005,11,04,12,10,8.50
2005,11,04,12,11,5.80
2005,11,04,12,12,8.00
2005,11,04,12,13,9.90
2005,11,04,12,14,9.20
2005,11,04,12,15,8.80
2005,11,04,12,16,11.30
2005,11,04,12,17,11.40
2005,11,04,12,18,11.40
2005,11,04,12,19,9.70
2005,11,04,12,20,10.30
2005,11,04,12,21,7.20
2005,11,04,12,22,7.10
2005,11,04,12,23,6.50
2005,11,04,12,24,6.00
2005,11,04,12,25,4.30
2005,11,04,12,26,8.00
2005,11,04,12,27,10.70
2005,11,04,12,28,8.20
2005,11,04,12,29,8.40
2005,11,04,12,30,6.30
2005,11,04,12,31,6.70
2005,11,04,12,32,10.00
2005,11,04,12,33,10.30
2005,11,04,12,34,20.40
2005,11,04,12,35,11.30
2005,11,04,12,36,12.00
2005,11,04,12,37,6.40
2005,11,04,12,38,10.30
2005,11,04,12,39,6.10
2005,11,04,12,40,4.90
2005,11,04,12,41,12.40
2005,11,04,12,42,8.20
2005,11,04,12,43,3.70
2005,11,04,12,44,2.50
2005,11,04,12,45,6.90
2005,11,04,12,46,8.60
2005,11,04,12,47,4.10
2005,11,04,12,48,5.10
2005,11,04,12,49,5.50
2005,11,04,12,50,4.40
2005,11,04,12,51,2.90
2005,11,04,12,52,8.70
2005,11,04,12,53,8.10
2005,11,04,12,54,10.10
2005,11,04,12,55,6.00
2005,11,04,12,56,11.60
2005,11,04,12,57,7.40
2005,11,04,12,58,7.60
2005,11,04,12,59,10.40
2005,11,04,13,00,10.10
2005,11,04,13,01,6.10
2005,11,04,13,02,9.10
2005,11,04,13,03,8.70
2005,11,04,13,04,6.90
2005,11,04,13,05,9.20
2005,11,04,13,06,6.10
2005,11,04,13,07,5.80
2005,11,04,13,08,6.70
2005,11,04,13,09,3.40
2005,11,04,13,10,6.00
2005,11,04,13,11,9.80
2005,11,04,13,12,8.10
2005,11,04,13,13,6.60
2005,11,04,13,14,6.00
2005,11,04,13,15,3.90
2005,11,04,13,16,3.70
2005,11,04,13,17,4.70
2005,11,04,13,18,7.60
2005,11,04,13,19,8.30
2005,11,04,13,20,1.60
2005,11,04,13,21,6.20
2005,11,04,13,22,6.50
2005,11,04,13,23,9.00
2005,11,04,13,24,12.10
2005,11,04,13,25,6.10
2005,11,04,13,26,4.80
2005,11,04,13,27,5.80
2005,11,04,13,28,14.30
2005,11,04,13,29,8.90
2005,11,04,13,30,3.70
2005,11,04,13,31,6.40
2005,11,04,13,32,2.40
2005,11,04,13,33,4.10
2005,11,04,13,34,10.30
2005,11,04,13,35,5.70
2005,11,04,13,36,5.70
2005,11,04,13,37,5.60
2005,11,04,13,38,7.70
2005,11,04,13,39,3.70
2005,11,04,13,40,4.70
2005,11,04,13,41,6.70
2005,11,04,13,42,4.90
2005,11,04,13,43,0.90
2005,11,04,13,44,4.00
2005,11,04,13,45,5.60
2005,11,04,13,46,3.70
2005,11,04,13,47,2.40
2005,11,04,13,48,3.00
2005,11,04,13,49,5.00
2005,11,04,13,50,8.20
2005,11,04,13,51,6.60
2005,11,04,13,52,10.10
2005,11,04,13,53,7.50
2005,11,04,13,54,6.40
2005,11,04,13,55,4.30
2005,11,04,13,56,3.50
2005,11,04,13,57,3.20
2005,11,04,13,58,3.20
2005,11,04,13,59,6.90
2005,11,04,14,00,6.20
2005,11,04,14,01,4.80
2005,11,04,14,02,6.00
2005,11,04,14,03,3.30
2005,11,04,14,04,7.00
2005,11,04,14,05,6.10
2005,11,04,14,06,3.10
2005,11,04,14,07,10.00
2005,11,04,14,08,4.30
2005,11,04,14,09,8.00
2005,11,04,14,10,14.00
2005,11,04,14,11,9.80
2005,11,04,14,12,7.40
2005,11,04,14,13,3.60
2005,11,04,14,14,6.10
2005,11,04,14,15,6.60
2005,11,04,14,16,5.80
2005,11,04,14,17,4.80
2005,11,04,14,18,11.50
2005,11,04,14,19,7.80
2005,11,04,14,20,6.60
2005,11,04,14,21,13.60
2005,11,04,14,22,10.80
2005,11,04,14,23,5.80
2005,11,04,14,24,9.70
2005,11,04,14,25,8.90
2005,11,04,14,26,10.90
2005,11,04,14,27,8.10
2005,11,04,14,28,8.70
2005,11,04,14,29,11.00
2005,11,04,14,30,10.00
2005,11,04,14,31,15.60
2005,11,04,14,32,10.50
2005,11,04,14,33,9.70
2005,11,04,14,34,15.60
2005,11,04,14,35,16.30
2005,11,04,14,36,20.30
2005,11,04,14,37,14.40
2005,11,04,14,38,13.10
2005,11,04,14,39,11.70
2005,11,04,14,40,8.90
2005,11,04,14,41,4.30
2005,11,04,14,42,4.30
2005,11,04,14,43,4.20
2005,11,04,14,44,4.70
2005,11,04,14,45,8.00
2005,11,04,14,46,6.40
2005,11,04,14,47,10.00
2005,11,04,14,48,6.30
2005,11,04,14,49,6.10
2005,11,04,14,50,6.10
2005,11,04,14,51,3.50
2005,11,04,14,52,8.00
2005,11,04,14,53,5.90
2005,11,04,14,54,5.40
2005,11,04,14,55,1.70
2005,11,04,14,56,3.10
2005,11,04,14,57,8.30
2005,11,04,14,58,5.70
2005,11,04,14,59,7.50
2005,11,04,15,00,9.90
2005,11,04,15,01,4.30
2005,11,04,15,02,10.20
2005,11,04,15,03,7.50
2005,11,04,15,04,7.10
2005,11,04,15,05,7.40
2005,11,04,15,06,7.60
2005,11,04,15,07,8.00
2005,11,04,15,08,10.10
2005,11,04,15,09,6.70
2005,11,04,15,10,9.40
2005,11,04,15,11,7.00
2005,11,04,15,12,6.90
2005,11,04,15,13,9.20
2005,11,04,15,14,13.50
2005,11,04,15,15,5.00
2005,11,04,15,16,5.40
2005,11,04,15,17,4.80
2005,11,04,15,18,4.60
2005,11,04,15,19,6.20
2005,11,04,15,20,8.20
2005,11,04,15,21,5.30
2005,11,04,15,22,2.70
2005,11,04,15,23,7.70
2005,11,04,15,24,8.30
2005,11,04,15,25,6.40
2005,11,04,15,26,3.70
2005,11,04,15,27,7.40
2005,11,04,15,28,4.90
2005,11,04,15,29,4.80
2005,11,04,15,30,5.70
2005,11,04,15,31,6.20
2005,11,04,15,32,7.80
2005,11,04,15,33,7.50
2005,11,04,15,34,7.20
2005,11,04,15,35,11.40
2005,11,04,15,36,11.40
2005,11,04,15,37,9.90
2005,11,04,15,38,11.50
2005,11,04,15,39,9.20
2005,11,04,15,40,10.00
2005,11,04,15,41,11.70
2005,11,04,15,42,8.60
2005,11,04,15,43,9.90
2005,11,04,15,44,10.40
2005,11,04,15,45,7.10
2005,11,04,15,46,8.80
2005,11,04,15,47,7.90
2005,11,04,15,48,5.60
2005,11,04,15,49,6.10
2005,11,04,15,50,0.60
2005,11,04,15,51,0.80
2005,11,04,15,52,6.40
2005,11,04,15,53,11.50
2005,11,04,15,54,17.90
2005,11,04,15,55,13.30
2005,11,04,15,56,11.00
2005,11,04,15,57,18.60
2005,11,04,15,58,17.80
2005,11,04,15,59,8.40
2005,11,04,16,00,11.80
2005,11,04,16,01,10.10
2005,11,04,16,02,7.50
2005,11,04,16,03,7.50
2005,11,04,16,04,7.60
2005,11,04,16,05,9.50
2005,11,04,16,06,17.00
2005,11,04,16,07,6.60
2005,11,04,16,08,8.40
2005,11,04,16,09,7.90
2005,11,04,16,10,12.00
2005,11,04,16,11,11.20
2005,11,04,16,12,9.30
2005,11,04,16,13,7.20
2005,11,04,16,14,8.00
2005,11,04,16,15,10.00
2005,11,04,16,16,10.70
2005,11,04,16,17,7.20
2005,11,04,16,18,9.50
2005,11,04,16,19,8.40
2005,11,04,16,20,6.40
2005,11,04,16,21,12.10
2005,11,04,16,22,15.80
2005,11,04,16,23,6.80
2005,11,04,16,24,11.30
2005,11,04,16,25,10.80
2005,11,04,16,26,7.00
2005,11,04,16,27,9.60
2005,11,04,16,28,9.20
2005,11,04,16,29,9.70
2005,11,04,16,30,11.90
2005,11,04,16,31,9.90
2005,11,04,16,32,6.60
2005,11,04,16,33,5.10
2005,11,04,16,34,4.40
2005,11,04,16,35,7.10
2005,11,04,16,36,4.20
2005,11,04,16,37,4.20
2005,11,04,16,38,4.80
2005,11,04,16,39,5.00
2005,11,04,16,40,5.00
2005,11,04,16,41,3.20
2005,11,04,16,42,6.40
2005,11,04,16,43,4.60
2005,11,04,16,44,4.10
2005,11,04,16,45,4.40
2005,11,04,16,46,3.30
2005,11,04,16,47,6.10
2005,11,04,16,48,4.60
2005,11,04,16,49,5.20
2005,11,04,16,50,8.40
2005,11,04,16,51,7.20
2005,11,04,16,52,6.80
2005,11,04,16,53,5.70
2005,11,04,16,54,5.30
2005,11,04,16,55,6.70
2005,11,04,16,56,8.20
2005,11,04,16,57,7.00
2005,11,04,16,58,9.00
2005,11,04,16,59,6.50
2005,11,04,17,00,5.90
2005,11,04,17,01,4.70
2005,11,04,17,02,6.60
2005,11,04,17,03,7.90
2005,11,04,17,04,7.80
2005,11,04,17,05,5.00
2005,11,04,17,06,9.90
2005,11,04,17,07,7.10
2005,11,04,17,08,6.10
2005,11,04,17,09,8.50
2005,11,04,17,10,6.10
2005,11,04,17,11,5.00
2005,11,04,17,12,4.00
2005,11,04,17,13,6.00
2005,11,04,17,14,3.40
2005,11,04,17,15,5.70
2005,11,04,17,16,6.00
2005,11,04,17,17,3.70
2005,11,04,17,18,7.80
2005,11,04,17,19,4.10
2005,11,04,17,20,5.20
2005,11,04,17,21,5.50
2005,11,04,17,22,9.40
2005,11,04,17,23,8.60
2005,11,04,17,24,5.40
2005,11,04,17,25,5.50
2005,11,04,17,26,5.90
2005,11,04,17,27,9.30
2005,11,04,17,28,9.30
2005,11,04,17,29,3.80
2005,11,04,17,30,4.50
2005,11,04,17,31,7.90
2005,11,04,17,32,8.20
2005,11,04,17,33,6.10
2005,11,04,17,34,1.60
2005,11,04,17,35,6.40
2005,11,04,17,36,3.50
2005,11,04,17,37,5.20
2005,11,04,17,38,2.20
2005,11,04,17,39,4.30
2005,11,04,17,40,5.30
2005,11,04,17,41,5.50
2005,11,04,17,42,5.40
2005,11,04,17,43,4.60
2005,11,04,17,44,3.80
2005,11,04,17,45,4.40
2005,11,04,17,46,7.20
2005,11,04,17,47,8.40
2005,11,04,17,48,8.40
2005,11,04,17,49,4.30
2005,11,04,17,50,6.50
2005,11,04,17,51,4.80
2005,11,04,17,52,0.80
2005,11,04,17,53,4.60
2005,11,04,17,54,4.50
2005,11,04,17,55,3.10